Location: Ab? ar R?sh Ba?r?
(24.1861°N, 32.8847°E)
Time: 10:48:41
(UTC+00:00)

Cosmos 2333 Rocket - Pass Details

Date: 24 October 2021
Orbit: 837 x 865 km, 70.8° (Epoch: 03 December)

Event Time Altitude Azimuth Distance (km) Brightness Sun altitude
Rises 16:31:55 0° 195° (SSW) 3,374 5.6 -18.3°
Reaches altitude 10° 16:34:20 10° 194° (SSW) 2,444 4.8 -18.8°
Maximum altitude 16:39:57 82° 107° (ESE) 851 2.1 -20.1°
Enters shadow 16:45:23 11° 20° (NNE) 2,385 4.3 -21.3°
